STARLINK-34036, 63945

Orbit data source: Space-Track

STARLINK-34036, 63945 is a payload satellite owned by SpaceX/Seattle (US) in LEO that was launched on Tue, 13 May 2025 UTC via an FALCON 9 launch vehicle from the Air Force Western Test Range (AFWTR). Payload-class satellites include a variety of spacecraft equipped with specific instruments for various scientific and technological missions. These include communications satellites like Starlink; space stations such as the ISS; scientific satellites like the Hubble; Earth observation satellites from companies like Planet Labs, Umbra, and HawkEye 360; GPS; miniature CubeSats for education and research; and military/defense satellites.

Loading next visibility...
Identifier
63945, 2025-098V
Orbit
LEO
Country
Flag of USUS
Related business
Manufacturer
SpaceX/Seattle
Mission
Operational Commercial Communications
Bus & Motor
STARLINK V2MO, Unknown motor
Mass
575 kg wet, ~530 kg dry
Launch date (UTC)
2025-05-13 (7 months ago)
Launch vehicle
FALCON 9
Launch site
Air Force Western Test Range (AFWTR)
Object type
Payload
Rocket body
Debris
Shape & HBR
Box + 2 Pan, 17.7 m
Radar Cross Section
36.964 m², Large (>1 m²)

Expand to show TLE details & history
Last TLE update: 20 hours ago

TLE from 20 hours ago
0 STARLINK-34036
1 63945U 25098V   25348.79939430  .00001922  00000-0  16883-3 0  9990
2 63945  70.0005 128.6185 0003232 269.7082  90.3707 14.98328592 33830
Epoch: 2025-12-14T19:11Z
TLE epoch observation values (Epoch: 2025-12-14T19:11:07.667Z)
Latitude
Longitude
117.12943°
Altitude
574.499 km
Speed
7.574 km/s
True Right ascension
08h 34m 28s
True Declination
0° 00' 00"
Sunlit
Object was in full shadow at epoch
Visualization orbit readout
Latitude
Unknown
Longitude
Unknown
Altitude
Unknown
Speed
Unknown
Apparent Right ascension
Unknown
Apparent Declination
Unknown
Sunlit
N/A
Visualization observer readout
Local Sidereal Time
13:18:48
Azimuth
Unknown
Elevation
Unknown
Doppler factor
Unknown
Orbital elements
Apogee altitude
572.254 km
Perigee altitude
567.763 km
Semi-major axis
6,948.145 km
Eccentricity
0.00032
Inclination
70.0005°
RAAN
128.6185°
Arg. of periapsis
269.7082°
True anomaly
90.40774°
Mean anomaly
90.3707°
Eccentric anomaly
90.38922°
Mean motion
3.74748 °/min
Orbital period
96.06 mins
BSTAR
0.00016883
Loading maneuver chart data...
Computing Atmospheric mass density...
Loading historical data...
Loading historical data...
Loading historical data...
Loading historical data...
Loading historical data...
Loading historical data...
Loading historical data...

Documentation

Showing up to 5 results
|